Погода Александровский Завод

Погода Александровский Завод : погода сейчас, прогноз погоды и архив. Всё, что Вы хотите узнать о погоде Александровский Завод!

Хотите узнать прогноз погоды Александровский Завод? Тогда Вам сюда: Погода Александровский Завод

Поиск расширенной информации на нашем сайте:

Другие новости

Новости СМИ2

Главная страница сайта

Новости сайта

02.10.2013

Напоминаем, что на нашем новом сайте вы можете получить высокодетализированные прогнозы погоды по пунктам России, СНГ и мира (включающие важные для авиации метеовеличины, такие как направление и скорость ветра, видимость, явления погоды, количество и форма облачности, нижняя и верхняя граница облачности), а также ознакомиться с разнообразными материалами по авиационной метеорологии и подборкой полезных ссылок на эту тему.

Сайт Метеоцентр.Азия посвящён разработке технологий оптимизации авиаметеорологического обслуживания, включая проектирование и перспективное создание нескольких автоматизированных авиаметеорологических систем:
- система выпуска высокодетальных прогностических карт явлений погоды для нижнего воздушного пространства по России и ближнему зарубежью;
- система верификации прогнозов TAF (выпускаемых синоптиками официальных АМСГ РФ и ближнего зарубежья) и AUTOTAF (выпускаемых сайтом Метеоцентр.Азия) - выявление ошибок, онлайн-сопоставление с фактической погодой METAR, автоматическое внесение коррективов в прогнозы при резком отклонении фактической погоды от прогноза, подсчёт оправдываемости прогнозов по элементам и в целом;
- система обработки, анализа и отображения авиаметеорологической информации для применения провайдерами метеорологической информации.

Рекомендуем: Смотрите информацию обивка вагонкой цена на нашем сайте.

Погода Александровский Завод - сегодня

Время (UTC), дата Ветер
(°,м/с) 
Видим.   Явления Облачность Т
(°С)
Тd
(°С)
f(%) Тe
(°С)
Pmin
(гПа)
dP
(гПа)
Po
(мм)
O2
(г/м3)
Тmin Tmax R s Состояние
почвы
06 24.03.17 300 (СЗ) 20000 м    ясно 
+4.4 -17.3 19 +3  1020.9  -1.5  694  276           
09 24.03.17 020 (С) 20000 м    ясно 
+2.9 -16.9 22 1020.8  -0.6  694  278           
12 24.03.17 210 (ЮЗ) 20000 м    ясно 
-6.5 -14.6 53 -8  1025.6  1.1  695  288    +11.6       
15 24.03.17 230 (ЮЗ) 20000 м    ясно 
-11.4 -14.4 78 -13  1027.7  0.2  695  293           
18 24.03.17 200 (Ю) 20000 м    ясно 
-12.1 -15 79 -12  1027.3  -0.6  694  294           
21 24.03.17 210 (ЮЗ) 20000 м    ясно 
-14.6 -16.6 85 -15  1027.8  -0.5  694  297           
00 25.03.17 тихо ()   20000 м    4/0 верхняя 
[Ci fib]
-7.3 -12.2 68 -7  1025.2  0.3  694  288  -15.3         
03 25.03.17 060 (СВ) 20000 м    8/4 600 м верхняя 
[Cu med, cong|Ci fib]
+2.5 -13.2 30 +1  1020.8  -0.6  694  278           
06 25.03.17 360 (С) 20000 м    10/6 600 м верхняя 
[Cu med, cong|Ci fib]
+3.1 -13.7 28 +1  1019.4  -1.1  693  277           
09 25.03.17 040 (СВ) 20000 м    10/3 600 м верхняя 
[Cu med, cong|Cs]
+2.3 -13.7 30 +1  1019.5  -0.2  693  278           
12 25.03.17 020 (С) 20000 м    8/0 верхняя 
[Cs]
-4.1 -10.2 62 -4  1023.2  1.3  694  285    +3.8       
15 25.03.17 220 (ЮЗ) 20000 м    10/0 средняя 
[As trans]
-8.3 -10.8 82 -8  1025.1  0.2  694  289           
18 25.03.17 200 (Ю) 20000 м    6/0 верхняя 
[Cs]
-11.5 -12.7 91 -13  1026.1  -0.3  694  293           
21 25.03.17 210 (ЮЗ) 20000 м    4/0 верхняя 
[Ci fib]
-14.6 -16.2 88 -15  1027.6  0.3  694  297           
00 26.03.17 290 (З) 20000 м    ясно 
-8.7 -11.1 83 -8  1026.2  0.9  694  290  -15.3         
03 26.03.17 030 (СВ) 20000 м    5/5 600 м 
[Cu med, cong]
+2.3 -12 34 +1  1022.1  694  278           
06 26.03.17 220 (ЮЗ) 20000 м    8/4 600 м верхняя 
[Cu med, cong|Ci ing]
+5 -15.2 22 +6  1019.5  -1.5  693  275           
09 26.03.17 330 (СЗ) 20000 м    6/3 600 м верхняя 
[Cu med, cong|Ci ing]
+2.6 -12 33 1020  -0.3  693  278           
12 26.03.17 220 (ЮЗ) 20000 м    3/0 средняя 
[Ac lent]
-6 -12.4 60 -7  1023.9  0.6  694  287    +5.3       
15 26.03.17 240 (ЮЗ) 20000 м    4/0 средняя, верхняя 
[Ac lent|Ci fib]
-7.3 -11.5 72 -7  1024.5  0.1  694  288           
18 26.03.17 200 (Ю) 20000 м    3/0 верхняя 
[Ci fib]
-11.5 -13.9 82 -13  1025.4  -0.7  693  293           
21 26.03.17 210 (ЮЗ) 20000 м    4/0 средняя, верхняя 
[Ac lent|Ci fib]
-13.1 -15 86 -15  1025.4  -0.6  693  294           
00 27.03.17 220 (ЮЗ) 20000 м    3/0 верхняя 
[Ci fib]
-7 -10.5 76 -7  1022.7  -0.2  692  287  -14.7         
03 27.03.17 280 (З) 20000 м    1/1 600 м 
[Cu hum]
+4.5 -14.3 24 +3  1016.8  -1.5  691  275           
06 27.03.17 300 (СЗ) 3{10}  20000 м    3/3 600 м 
[Cu med, cong]
+5.8 -13.4 24 +5  1014  -2.1  690  273           
Время (UTC), дата Ветер
(°,м/с) 
Видим.   Явления Облачность Т
(°С)
Тd
(°С)
f(%) Тe
(°С)
Pmin
(гПа)
dP
(гПа)
Po
(мм)
O2
(г/м3)
Тmin Tmax R s Состояние
почвы

Для получения пояснительной информации подведите курсор к названию столбца.

ПОГОДА Александровский Завод - архив

Всё, что Вы хотите узнать о погоде Александровский Завод - удобно и подробно!

Выберите нужную дату (начиная с 1 января 2015* года) и нажмите кнопку "Найти".
Будут отображены архивные сводки погоды по пункту Александровский Завод, начиная с указанной даты.


Отображать данные в формате CSV (для использования в таблицах Excel)


Внимание! Наш архив погоды предназначен исключительно для личного некоммерческого использования в познавательных целях. Если Вам необходимы официальные справки о состоянии погоды (для производственных, юридических, коммерческих и т.п. целей), обращайтесь в органы Росгидромета.

*Примечание: данная дата относится к архиву по метеостанциям СССР (Россия, СНГ, Балтия).
Архив по метеостанциям Зарубежной Европы и Азии (кроме Китая) хранится 10 дней, по другим регионам земного шара (Китай, Африка, Америка, Австралия, Океания) - 1 день.

Александровский Завод - район местоположения метеостанции


Название, широта, долгота, высота метеостанции:
Александровский Завод 50.9°ш. 117.9°д. 807 м над ур. моря [Российская Федерация]

Дополнительная информация

В oтличие oт бoльшинства пoгoдных сайтoв мы публикуем пoдрoбную метеoинфoрмацию в детальнoм прoфессиoнальнoм фoрмате.

Характеристики температуры и влажнoсти вoздуха измеряются на высoте 2 м в тени вдали oт зданий и деревьев.
Скoрoсть ветра измеряется на высoте 10 м (на урoвне рoста челoвека скoрoсть ветра ниже в 1.5-2 раза). Если метеoстанция нахoдится в гoрoде или в лесу, тo скoрoсть ветра занижена на 2-4 м/с пo сравнению с oткрытым местoм. Скoрoсть ветра над акватoриями крупных рек и oзёр, а также на вершинах хoлмoв на 2-5 м/с выше, чем в oбычных услoвиях.
Атмoсфернoе давление в разных тoчках местнoсти мoжет значительнo oтличаться oт давления на метеoстанции, в зависимoсти oт услoвий рельефа (при пoдъёме на 10 м давление пoнижается примернo на 1 мм рт.ст.).